Regional Weather Roundup
Issued by NWS New Orleans/Baton Rouge, LA

Home | Current Version | Previous Version | Text Only | Print | Product List | Glossary On
Versions: 1 2 3 4 5 6 7 8 9 10 11 12 13 14 15 16 17 18 19 20 21 22 23 24 25 26 27 28 29 30 31 32 33 34 35 36 37 38 39 40 41 42 43 44 45 46 47 48 49 50
047
ASUS44 KLIX 300911
RWRLIX
NEW ORLEANS REGIONAL WEATHER ROUNDUP
NATIONAL WEATHER SERVICE NEW ORLEANS LA
400 AM CDT MON MAY 30 2016

NOTE: "FAIR" INDICATES FEW OR NO CLOUDS BELOW 12,000 FEET WITH NO
      SIGNIFICANT WEATHER AND/OR OBSTRUCTIONS TO VISIBILITY.
      SKY/WX - SKY CONDITION AND SIGNIFICANT WEATHER.
      TMP - AIR TEMPERATURE.     DP    - DEWPOINT TEMPERATURE.
      RH  - RELATIVE HUMIDITY.   PRES  - PRESSURE.
      HI  - HEAT INDEX.          WCI   - WIND CHILL INDEX.

*  THESE STATIONS ARE NOT NWS OR FAA STATIONS AND ARE NOT UNDER
   NWS QUALITY CONTROL.

LAZ038-040-048-061>063-065>067-069-301000-
SOUTHEAST LOUISIANA

CITY           SKY/WX    TMP DP  RH WIND       PRES   REMARKS
N.O. AUDUBON   NOT AVBL
N.O. INTL ARPT PTCLDY    74  71  91 SW3       30.00F
N.O. LAKEFRONT CLEAR     77  71  82 SW5       30.00F
N.O. DOWNTOWN*   N/A     77  72  84 SW3       30.01F
RESERVE*         N/A     74  72  92 CALM      30.00S
SLIDELL        CLEAR     71  69  93 CALM      29.99F
BATON ROUGE    CLEAR     72  69  90 CALM      30.01R
BOOTHVILLE     CLEAR     75  71  87 CALM      30.01F
BELLE CHASSE   CLEAR     70  69  97 CALM      29.99F
BOGALUSA*        N/A     71  67  88 CALM      30.01F
GALLIANO*      SUNNY     65  64  96 CALM      29.99F FOG
NEW ROADS*       N/A     71  69  95 CALM      30.01S
GONZALES*        N/A     70  70 100 CALM      30.00R
HAMMOND*       CLEAR     72  68  88 CALM      30.00S
HOUMA*         CLEAR     70  70 100 CALM      29.99F FOG
PORT FOURCHON* SUNNY     79  72  78 CALM      30.00F

$$

MSZ070-080>082-301000-
SOUTHERN MISSISSIPPI

CITY           SKY/WX    TMP DP  RH WIND       PRES   REMARKS
MCCOMB         CLEAR     70  66  87 CALM      30.01F
GULFPORT       CLEAR     73  70  90 CALM      29.99F
BILOXI         CLEAR     76  74  96 W1        29.99F
PASCAGOULA     PTCLDY    68  67  96 CALM      30.00F

$$

COASTAL OBSERVATIONS
LAKE AND NEARSHORE STATIONS

STATION/POSITION TIME  TEMP    WIND        PRES    WAVE
                       AIR SEA DIR/SP/G            HT/PER
                 (UTC) (F)     (DEG/KT/KT) (MB)    (FT/S)
PASCAGOULA       0800   77     290/  5/  7 1015.6
WAVELAND YACHT   0800   76 81  260/  3/  5 1016.1
GRAND ISLE       0800   78 83  240/  3/  4 1016.5
SOUTHWEST PASS   0800          240/  7/  7   N/A
NEW CANAL        0800   78 81  230/  3/  4 1015.7
SHELL BEACH      0800   77 83  270/  6/  8 1016.5

OFFSHORE STATIONS

STATION/POSITION TIME  TEMP    WIND        PRES    WAVE
                       AIR SEA DIR/SP/G            HT/PER
                 (UTC) (F)     (DEG/KT/KT) (MB)    (FT/S)
64 S DAUPHIN ISL 0800   78 81  270/  8/  8 1016.4

$$





USA.gov is the U.S. government's official web portal to all federal, state and local government web resources and services.